Regional Weather Roundup
Issued by NWS

Home | Current Version | Previous Version | Graphics & Text | Print | Product List | Glossary On
Versions: 1 2 3 4 5 6 7 8 9 10 11 12 13 14 15 16 17 18 19 20 21 22 23 24 25 26 27 28 29 30 31 32 33 34 35 36 37 38 39 40 41 42 43 44 45 46 47 48 49 50
600
ASUS43 KTOP 180959
RWRKS

WEATHER ROUNDUP FOR KANSAS
NATIONAL WEATHER SERVICE GOODLAND KS
400 AM CST MON DEC 18 2017

NOTE:  "FAIR" INDICATES FEW OR NO CLOUDS BELOW 12,000 FEET WITH NO
SIGNIFICANT WEATHER AND/OR OBSTRUCTIONS TO VISIBILITY.

KSZ001>006-013>018-027>032-041>047-181100-
NORTHWEST KANSAS

CITY           SKY/WX    TMP DP  RH WIND       PRES   REMARKS
GOODLAND       CLOUDY    24  21  88 W9        29.99S
HAYS           CLOUDY    21  19  92 W8        30.05
HILL CITY      CLOUDY    26  22  84 W10       30.02S WCI  16
RUSSELL        CLOUDY    22  22 100 SW8       30.04S
$$

KSZ061>065-074>080-084>089-181100-
SOUTHWEST KANSAS

CITY           SKY/WX    TMP DP  RH WIND       PRES   REMARKS
DODGE CITY     CLOUDY    26  21  81 SW7       30.04F
GARDEN CITY    CLOUDY    22  18  85 CALM      30.03S
GREAT BEND     CLOUDY    21  19  92 CALM      30.07R
LIBERAL        CLEAR     22  20  92 SW7       30.04R
$$

KSZ066>073-081>083-090>101-181100-
SOUTHEAST KANSAS

CITY           SKY/WX    TMP DP  RH WIND       PRES   REMARKS
CHANUTE        CLOUDY    44  43  96 SW12      30.08R
COFFEYVILLE    CLOUDY    45  44  97 SW7       30.10R FOG
HUTCHINSON     CLOUDY    23  23 100 NW5       30.07R
MEDICINE LODGE   N/A     27  25  92 CALM      30.08R
NEWTON         CLOUDY    29  28  96 W5        30.06R
PARSONS        CLOUDY    44  44 100 S7        30.10R
WICHITA INTL   PTCLDY    27  26  96 SW3       30.07R
WICHITA JABRA  CLEAR     30  30 100 CALM      30.06R
WICHITA MCCONL CLEAR     31  30  96 CALM      30.06F FOG
WINFIELD       FOG       35  35 100 SW3       30.10R VSB 1/4
$$

KSZ007>012-019>026-033>040-048>060-102>105-181100-
NORTHEAST KANSAS

CITY           SKY/WX    TMP DP  RH WIND       PRES   REMARKS
CONCORDIA      CLOUDY    29  26  89 SW10      30.02S WCI  20
EMPORIA        CLEAR     34  32  92 W6        30.04S
LAWRENCE       CLEAR     40  38  93 W3        30.03S
MANHATTAN      CLEAR     33  31  92 W6        30.05R FOG
OLATHE IND     CLOUDY    43  42  97 SW7       30.04S
OLATHE EXE     CLOUDY    43  42  97 SW6       30.03S
SALINA         CLOUDY    26  23  88 S5        30.06R
TOPEKA BILLARD CLEAR     36  35  96 CALM      30.04R FOG
TOPEKA FORBES  CLEAR     37  36  96 SW8       30.03R FOG
$$




USA.gov is the U.S. government's official web portal to all federal, state and local government web resources and services.